Location: Black Swamp Observatory
(41.3920°N, 84.1250°W)
Time: 06:34:01
(UTC-05:00)

Vanguard 2 Rocket - All Passes

Search period start: 19 January 2022 00:00
Search period end: 29 January 2022 00:00
Orbit: 554 x 3325 km, 32.9° (Epoch: 18 January)

Date Brightness Start Highest point End Pass type
(mag) Time Alt. Az. Time Alt. Az. Time Alt. Az.
19 Jan - 01:41:07 10° S 01:53:59 29° SE 02:09:27 10° E visible
19 Jan - 03:52:10 10° SW 04:09:41 55° SSE 04:28:21 10° E visible
19 Jan - 06:07:32 10° WSW 06:27:26 66° S 06:44:12 10° ESE visible
19 Jan - 08:25:32 10° W 08:44:27 53° SSW 08:57:39 10° SE daylight
19 Jan - 10:46:06 10° W 10:58:28 25° SW 11:07:22 10° S daylight
20 Jan - 00:43:31 10° S 00:53:18 20° SE 01:05:05 10° E visible
20 Jan - 02:52:05 10° SW 03:07:47 47° SSE 03:26:20 10° E visible
20 Jan - 05:05:59 10° WSW 05:25:02 65° S 05:43:17 10° E visible
20 Jan - 07:22:58 10° W 07:42:46 60° SSW 07:57:51 10° ESE visible
20 Jan - 09:42:15 10° W 09:58:09 35° SW 10:09:19 10° SSE daylight
20 Jan - 23:49:32 10° SE 23:53:06 11° SE 23:56:58 10° ESE visible
21 Jan - 01:52:43 10° SSW 02:06:22 38° SE 02:23:39 10° E visible
21 Jan - 04:05:03 10° WSW 04:22:40 61° SSE 04:41:51 10° E visible
21 Jan - 06:20:50 10° W 06:40:38 65° S 06:57:32 10° ESE visible
21 Jan - 08:39:03 10° W 08:57:15 46° SSW 09:10:25 10° SE daylight
21 Jan - 11:01:19 10° W 11:10:41 17° SW 11:18:09 10° SSW daylight
22 Jan - 00:54:13 10° S 01:05:31 28° SE 01:20:09 10° E visible
22 Jan - 03:04:42 10° SW 03:20:34 55° SSE 03:39:53 10° E visible
22 Jan - 05:19:14 10° WSW 05:38:14 66° S 05:56:40 10° ESE visible
22 Jan - 07:36:23 10° W 07:55:44 54° SSW 08:10:51 10° SE daylight
22 Jan - 09:56:24 10° W 10:10:31 27° SW 10:21:08 10° S daylight
22 Jan - 23:57:02 10° SSE 00:05:12 18° SE 00:15:22 10° E visible
23 Jan - 02:05:00 10° SW 02:18:56 46° SSE 02:37:23 10° E visible
23 Jan - 04:18:10 10° WSW 04:35:47 65° S 04:55:15 10° E visible
23 Jan - 06:34:14 10° W 06:53:45 61° SSW 07:10:41 10° ESE visible
23 Jan - 08:52:46 10° W 09:09:49 37° SW 09:22:44 10° SSE daylight
23 Jan - 11:20:27 10° WSW 11:22:47 10° SW 11:24:59 10° SW daylight
24 Jan - 01:05:58 10° SSW 01:17:52 36° SE 01:34:18 10° E visible
24 Jan - 03:17:39 10° WSW 03:33:32 61° SSE 03:53:19 10° E visible
24 Jan - 05:32:34 10° W 05:51:25 65° S 06:09:55 10° ESE visible
24 Jan - 07:49:55 10° W 08:08:31 47° SSW 08:23:31 10° SE daylight
24 Jan - 10:11:28 10° W 10:22:43 19° SW 10:31:53 10° S daylight
25 Jan - 00:07:47 10° S 00:17:23 26° SE 00:30:30 10° E visible
25 Jan - 02:17:42 10° SW 02:31:43 54° SSE 02:50:53 10° E visible
25 Jan - 04:31:27 10° WSW 04:48:57 66° S 05:08:34 10° ESE visible
25 Jan - 06:47:41 10° W 07:06:42 55° SSW 07:23:35 10° SE visible
25 Jan - 09:06:55 10° W 09:22:10 29° SW 09:34:25 10° S daylight
25 Jan - 23:11:04 10° SSE 23:17:25 16° SE 23:25:23 10° E night (unlit)
26 Jan - 01:18:20 10° SW 01:30:26 44° SSE 01:48:01 10° E visible
26 Jan - 03:30:50 10° WSW 03:46:39 64° S 04:06:40 10° E visible
26 Jan - 05:46:00 10° W 06:04:30 61° SSW 06:22:59 10° ESE visible
26 Jan - 08:03:40 10° W 08:21:06 38° SW 08:35:42 10° SSE daylight
26 Jan - 10:29:10 10° WSW 10:34:48 12° SW 10:39:56 10° SW daylight
27 Jan - 00:19:37 10° SSW 00:29:45 34° SE 00:44:40 10° E visible
27 Jan - 02:30:44 10° WSW 02:44:41 60° SSE 03:04:16 10° E visible
27 Jan - 04:44:50 10° W 05:02:08 65° S 05:21:44 10° ESE visible
27 Jan - 07:01:15 10° W 07:19:29 47° SSW 07:36:06 10° SE visible
27 Jan - 09:21:56 10° W 09:34:22 21° SW 09:45:03 10° S daylight
27 Jan - 23:21:44 10° S 23:29:39 23° SE 23:40:43 10° E visible
28 Jan - 01:31:07 10° SW 01:43:13 52° SSE 02:01:28 10° E visible
28 Jan - 03:44:10 10° WSW 03:59:50 65° S 04:19:54 10° ESE visible
28 Jan - 05:59:30 10° W 06:17:29 55° SSW 06:35:45 10° SE visible
28 Jan - 08:17:50 10° W 08:33:29 30° SW 08:47:12 10° SSE daylight
28 Jan - 22:25:41 10° SSE 22:30:01 13° SE 22:35:13 10° ESE night (unlit)
